{"data":{"norad_id":69419,"epoch":"2026-07-04T17:06:42.425856Z","epoch_age_seconds":6755255,"freshness":"OLD","line1":"1 69419U 26125U   26185.71299104  .00000200  00000+0  57197-4 0  9994","line2":"2 69419  88.9976 278.3518 0068960  24.3354 336.1077 14.39873245  4245","mean_motion":14.39873245,"eccentricity":0.006896,"inclination_deg":88.9976,"raan_deg":278.3518,"arg_perigee_deg":24.3354,"mean_anomaly_deg":336.1077,"bstar":5.7197e-5,"rev_number":424,"period_min":100.00880320545,"perigee_km":709.70015832829,"apogee_km":808.13441102253,"semimajor_km":7137.0542846754,"source":"CELESTRAK","updated_at":"2026-07-05T09:00:23.161467Z"}}